NOAA 16 DEB

Satellite information

Favourite Embed

Satellite Type and Status

DEBRISIN ORBIT

Key statistics

Satellite NOAA 16 DEB at a glance.

Uptime

9214

Days in orbit

Revolutions

≈ 14.4

Per day

Orbit

SSO

Sun Synchronous Orbit

Inclination

98.9

Latest

Satellite identification and parameters

Extended collection of information and parameters for NOAA 16 DEB.

Object identification

Identified? True

Debris? True

Object name: NOAA 16 DEB

International designator: 2000-055DR

Object number (NORAD): 41212

Object ID (CCSDS): 41212

Country: UNITED STATES OF AMERICA (US)

Current information (Y/N): Y

RCS size: SMALL

Orbital parameters

Period: 100.261 minutes

Inclination: 98.9382 deg

SMA: 7149.065 km

Apoapsis: 782.455 km

Periapsis: 759.405 km

RAAN: 118.7504 deg

Eccentricy: 0.00161214

Argument of periapsis: 153.2543 deg

Mean anomaly: 206.9477 deg

Mean motion: 14.36246175 rev/day

Mean motion (dot): 0.00011388 rev/day2

B* drag term: 0.003904273 1/REarth

Two-line elements (TLE)

Creation date: Dec. 8, 2025, 3:46 a.m.

Reference frame: TEME

Reference center: EARTH

Epoch: Dec. 7, 2025, 8:18 p.m. UTC

TLE line 0: 0 NOAA 16 DEB

TLE line 1: 1 41212U 00055DR 25341.84595733 .00011388 00000-0 39043-2 0 9991

TLE line 2: 2 41212 98.9382 118.7504 0016121 153.2543 206.9477 14.36246175517727

Live tracking on map

Real-time ground track for satellite NOAA 16 DEB.

In-orbit conjunctions

A list of the most updated potential collisions computed for object NOAA 16 DEB.

Target Orbit TCA Probability of collision Miss distance Type
SL-8 R/B LEO 2025-04-22 07:46:33 0.0001208686 612.0 (m) ROCKET BODY
COSMOS 972 LEO 2025-04-04 00:19:06 0.0001498082 253.0 (m) PAYLOAD
PSLV R/B SSO 2025-03-04 02:49:01 0.00308006 52.0 (m) ROCKET BODY
FENGYUN 1C DEB SSO 2024-11-14 21:22:12 0.0001038015 615.0 (m) DEBRIS
COSMOS 1275 DEB LEO 2024-11-09 01:04:17 0.0008767932 223.0 (m) DEBRIS

Associated space launch

The NOAA K, L and M POES satellites begin the fifth generation of improved environmental monitoring in support of NOAA missions. The instrument payload has significant improvements and additions/deletions. The instrument changes have effected the spacecraft subsystems and data formats.

NOAA 16 DEB was lifted into orbit during the mission ‘Titan II SLV | NOAA 16’, on board a Titan II SLV space rocket.

The launch took place on Sept. 21, 2000, 10:22 a.m. from Space Launch Complex 4W.

For more information about the launch, click the button.

Launch to space Titan II SLV | NOAA 16
Titan II SLV | NOAA 16

Agency: N/A

Status: Launch Successful

Launch date: Sept. 21, 2000, 10:22 a.m. UTC

Rocket: Titan II SLV

Launch pad: Space Launch Complex 4W

Location: Vandenberg SFB, CA, USA

...

Latest news about this satellite

There are no fresh news available about this satellite. Check back as we update our databases every day.


Newsletter sign-up

Weekly statistics, charts and insights to help you stay on top of the space industry.